Regional Weather Roundup
Issued by NWS

Home | Current Version | Previous Version | Text Only | Print | Product List | Glossary Off
Versions: 1 2 3 4 5 6 7 8 9 10 11 12 13 14 15 16 17 18 19 20 21 22 23 24 25 26 27 28 29 30 31 32 33 34 35 36 37 38 39 40 41 42 43 44 45 46 47 48 49 50

000
ASUS44 KMEG 260710
RWRTN
TENNESSEE HOURLY STATE WEATHER ROUNDUP
NATIONAL WEATHER SERVICE MEMPHIS TN
200 AM CDT WED JUL 26 2017

TNZ002-004-019-021-049-052-054-088>092-260800-
WEST TENNESSEE

CITY           SKY/WX    TMP DP  RH WIND       PRES   REMARKS
MEMPHIS INTL   CLEAR     79  76  90 S5        30.08S
NWS MEMPHIS      N/A     78 N/A N/A MISG        N/A
JACKSON        CLEAR     76  75  97 SW5       30.08S
SOMERVILLE       N/A     75  73  94 CALM      30.07F
COVINGTON      CLEAR     77  73  88 CALM      30.07S
UNION CITY       N/A     75  73  94 CALM      30.06S FOG
BOLIVAR        CLEAR     73  72  94 CALM      30.08S
PARIS          PTCLDY    73  73 100 CALM      30.07S FOG
HUNTINGDON     CLEAR     77  75  94 CALM      30.07S FOG
LEXINGTON      CLEAR     77  75  94 CALM      30.08S
SELMER         CLEAR     75  73  94 SW3       30.09S
SAVANNAH       CLEAR     73  73 100 SE3       30.08S FOG
$$

TNZ008-025-027-028-033-062-065-066-260800-
NORTH MIDDLE TENNESSEE

CITY           SKY/WX    TMP DP  RH WIND       PRES   REMARKS
NASHVILLE      CLEAR     78  72  81 CALM      30.10F
PORTLAND         N/A     75  70  83 CALM      30.10F
CLARKSVILLE    CLEAR     74  70  87 CALM      30.09F
SMYRNA         PTCLDY    75  73  93 SE5       30.10F
COOKEVILLE     CLEAR     70  70 100 CALM      30.12F FOG
GALLATIN       PTCLDY    75  72  88 N3        30.12F
CROSSVILLE     CLEAR     68  66  93 CALM      30.18F
$$

TNZ061-075-076-078-094-096-097-260800-
SOUTH MIDDLE TENNESSEE

CITY           SKY/WX    TMP DP  RH WIND       PRES   REMARKS
FAYETTEVILLE   CLOUDY    75  73  94 S5        30.12S
TULLAHOMA      CLEAR     72  68  88 CALM      30.14F
WINCHESTER     CLEAR     73  72  94 CALM      30.13S
MCMINNVILLE    CLEAR     73  73 100 CALM      30.13S
COLUMBIA       CLEAR     75  75 100 CALM      30.08F FOG
SHELBYVILLE    CLEAR     73  72  94 E5        30.10F
$$

TNZ017-018-042-046-047-260800-
NORTHEAST TENNESSEE

CITY           SKY/WX    TMP DP  RH WIND       PRES   REMARKS
TRI CITIES     PTCLDY    69  65  86 CALM      30.15S
ELIZABETHTON   PTCLDY    68  64  88 CALM      30.15S
$$

TNZ012-013-036-069-073-074-260800-
CENTRAL EAST TENNESSEE

CITY           SKY/WX    TMP DP  RH WIND       PRES   REMARKS
KNOXVILLE      CLEAR     70  68  93 E3        30.11S
OAK RIDGE      CLEAR     70  67  90 CALM      30.12F
DOWNTOWN KNOXV CLEAR     70  70 100 CALM      30.11R FOG
MORRISTOWN     CLOUDY    72  68  88 CALM      30.13R
JACKSBORO      CLEAR     66  64  94 CALM      30.17F FOG
$$

TNZ083-085-099-260800-
SOUTHEAST TENNESSEE

CITY           SKY/WX    TMP DP  RH WIND       PRES   REMARKS
CHATTANOOGA    CLEAR     76  71  85 CALM      30.10F
DAYTON         CLOUDY    72  72 100 CALM      30.09F
$$

SKY/WX REPORTED AS FAIR MEANS FEW OR NO CLOUDS BELOW
12 THOUSAND FEET.




USA.gov is the U.S. government's official web portal to all federal, state and local government web resources and services.